Probability
0 0 0 0 0 0 0 0 0 0 0 0 0 0 0 0 0 0 0 0 2 6 9 9 7 5 6 6 6 6 5 4 3 4 4 4 3 4 4 4 3 1 0 0 0 0 0 0 0
0 0 0 0 0 0 0 0 0 0 0 0 0 0 0 0 0 0 0 0 2 6 8 8 7 6 6 6 6 6 5 4 4 4 4 3 2 3 4 4 4 2 1 0 0 0 0 0 0
0 0 0 0 0 0 0 0 0 0 0 0 0 0 0 0 0 0 0 1 3 6 6 6 7 7 7 7 6 6 6 5 5 5 5 4 2 2 2 3 4 4 3 2 1 1 1 0 0
0 0 0 0 0 0 0 0 0 0 0 0 0 0 0 0 0 0 0 1 3 4 5 5 7 8 7 6 6 6 6 6 6 6 6 5 4 3 2 2 4 5 5 4 3 2 1 1 0
0 0 0 0 0 0 0 0 0 0 0 0 0 0 0 0 0 0 1 2 3 3 4 5 6 7 7 6 5 5 6 6 7 7 7 6 5 3 1 2 3 5 5 4 3 3 2 2 1
0 0 0 0 0 0 0 0 0 0 0 0 0 0 0 0 0 1 3 4 4 5 6 6 7 6 6 5 5 4 5 6 6 7 8 7 6 3 2 2 3 3 3 3 3 3 3 3 3
0 0 0 0 0 0 0 0 0 0 0 0 0 0 0 0 0 2 4 6 6 7 8 8 6 6 5 4 4 3 4 5 5 5 6 6 6 5 3 3 3 2 1 1 2 3 3 3 3
0 0 0 0 0 0 0 0 0 0 0 0 0 0 0 0 1 3 6 6 7 8 9 8 6 4 4 3 3 3 3 4 4 4 4 4 5 6 5 5 4 3 2 1 2 2 3 3 3
0 0 0 0 0 0 0 0 0 0 0 0 0 0 0 0 1 4 5 6 6 7 7 7 5 4 3 3 3 3 3 3 3 3 3 3 4 5 5 4 4 5 4 3 2 2 2 2 1
0 0 0 0 0 0 0 0 0 0 0 0 0 0 0 0 1 3 4 4 4 5 6 7 6 4 3 2 3 3 3 3 3 3 3 3 3 4 4 3 3 4 4 3 2 1 1 1 0
0 0 0 0 0 0 0 0 0 0 0 0 0 0 0 1 1 2 3 2 3 4 6 6 6 5 3 2 3 3 3 3 3 3 3 3 3 3 3 2 1 2 2 1 1 0 0 0 0
0 0 0 0 0 0 0 0 0 0 0 0 1 1 1 2 2 3 3 2 2 4 5 5 5 5 3 2 3 3 3 3 3 3 3 3 3 3 3 2 1 1 0 0 0 0 0 0 0
0 0 0 0 0 0 0 0 0 0 0 1 2 2 2 3 3 2 2 1 2 3 4 3 3 4 4 2 3 3 3 3 3 3 3 3 3 3 3 3 2 1 0 0 0 0 0 0 0
0 0 0 0 0 0 0 0 0 0 0 1 3 3 2 2 2 2 2 1 2 3 3 3 3 3 3 2 3 3 3 3 3 3 3 3 3 3 3 3 2 1 0 0 0 0 0 0 0
0 0 0 0 0 0 0 0 0 0 1 2 3 3 1 0 1 2 2 2 3 3 3 3 3 3 2 2 3 3 3 3 3 3 3 3 3 3 3 3 2 1 0 0 0 0 0 0 0
0 0 0 0 0 0 0 0 0 0 1 2 3 3 1 0 0 1 2 3 3 3 3 3 3 3 2 1 2 3 3 3 3 3 3 3 3 3 3 3 1 0 0 0 0 0 0 0 0
0 0 0 0 0 0 0 0 0 0 1 3 3 3 2 1 0 0 1 1 2 3 3 3 3 3 2 1 2 3 3 3 3 3 3 3 3 3 3 2 1 0 0 0 0 0 0 0 0
0 0 0 0 0 0 0 0 0 1 2 3 3 3 3 2 1 1 1 0 1 2 3 3 3 1 1 1 2 3 3 3 3 3 3 3 3 3 3 2 1 0 0 0 0 0 0 0 1
0 0 0 0 0 0 0 0 0 1 2 3 3 3 3 3 3 2 2 1 0 1 2 2 2 1 0 0 1 1 1 1 2 3 3 3 3 3 3 2 1 0 0 0 0 0 0 1 2
0 0 0 0 0 0 0 0 0 0 1 1 2 3 3 3 3 3 3 2 1 0 1 1 1 0 0 0 0 0 0 0 1 2 3 2 3 3 3 2 1 0 0 0 0 0 0 1 2
0 0 0 0 0 0 0 0 0 0 0 0 1 2 2 3 3 3 3 3 2 1 0 0 0 0 1 2 1 1 0 0 0 1 2 3 3 3 3 2 1 0 0 0 0 0 0 0 1
0 0 0 0 0 0 0 0 0 0 0 0 0 1 1 1 2 3 3 3 3 2 1 1 0 0 2 3 3 2 2 2 1 0 1 2 3 3 3 2 1 0 0 0 0 0 0 0 0
0 0 0 0 0 0 0 0 0 0 0 0 0 0 0 0 1 1 2 3 3 3 3 2 1 0 1 2 3 3 3 3 2 0 0 1 1 2 3 2 1 0 0 0 0 0 0 0 0
0 0 0 0 0 0 0 0 0 0 0 0 0 0 0 0 0 0 1 2 3 3 3 3 1 0 0 1 2 3 3 2 1 0 0 0 0 1 1 1 1 0 0 0 0 0 0 0 0
0 0 0 0 0 0 0 0 0 0 0 0 0 0 0 0 0 0 0 1 2 3 3 3 2 1 0 0 1 2 2 1 0 0 0 0 0 0 0 0 0 0 0 0 0 0 0 0 0
0 0 0 0 0 0 0 0 0 0 0 0 0 0 0 0 0 0 0 0 1 2 2 3 3 2 1 0 0 1 1 1 1 0 0 0 0 0 0 0 0 0 0 0 0 0 0 0 0
0 0 0 0 0 0 0 0 0 0 0 0 0 0 0 0 0 0 0 0 0 1 1 1 2 2 1 0 0 0 1 1 1 1 2 1 0 0 0 0 0 0 0 0 0 0 0 0 0
0 0 0 0 0 0 0 0 0 0 0 0 0 0 0 0 0 0 0 0 0 0 0 0 1 1 0 0 0 0 0 1 1 2 2 1 0 0 0 0 0 0 0 0 0 0 0 0 0
0 0 0 0 0 0 0 0 0 0 0 0 0 0 0 0 0 0 0 0 0 0 0 0 0 0 0 0 0 0 0 0 0 1 1 1 0 0 0 0 0 0 0 0 0 0 0 0 0
0 0 0 0 0 0 0 0 0 0 0 0 0 0 0 0 0 0 0 0 0 0 0 0 0 0 0 0 0 0 0 0 0 0 0 0 0 0 0 0 0 0 0 0 0 0 0 0 0
Wind_Speed
6 3 3 4 7 5 1 3 2 1 1 0 1 3 5 4 3 2 0 2 4 3 2 4 5 6 7 7 8 8 8 8 8 8 8 8 8 8 8 8 9 9 9 9 9 9 9 10 10
1 2 5 5 6 2 3 3 2 2 2 3 3 3 3 2 1 3 1 1 4 4 3 3 5 6 7 7 7 8 8 8 8 8 8 8 8 8 8 8 8 8 9 8 9 9 9 9 9
1 4 5 5 4 5 4 2 3 1 1 2 3 2 2 1 1 2 1 3 4 4 3 3 6 6 7 7 7 8 8 8 8 8 8 8 8 8 8 8 8 9 9 9 8 9 9 9 9
3 5 5 4 3 3 3 2 2 2 2 3 3 3 2 2 1 1 3 5 5 4 3 3 6 7 7 7 7 7 7 7 8 8 8 8 8 8 8 8 8 8 8 8 8 8 8 8 8
4 5 4 1 2 2 2 1 2 2 1 1 3 3 1 3 2 4 4 5 5 4 3 3 6 6 7 7 7 7 7 7 7 7 8 7 7 7 8 8 8 8 8 8 8 7 7 7 8
5 4 4 3 3 2 2 1 2 2 2 2 3 3 1 1 3 4 4 4 4 4 3 3 5 6 6 7 7 7 7 7 7 7 7 7 6 6 7 7 7 7 7 8 7 6 6 6 7
5 4 4 4 3 2 1 1 3 2 2 2 4 4 1 1 2 4 4 4 4 4 3 3 3 4 5 6 6 7 7 7 7 7 7 7 6 6 6 6 7 7 7 7 7 7 7 6 7
4 5 3 3 4 3 1 1 1 3 2 1 3 5 4 4 4 4 5 4 4 3 3 3 3 3 3 3 6 7 7 7 7 7 7 7 6 6 7 6 6 6 6 6 6 6 7 7 7
4 4 3 5 5 3 1 1 1 1 3 1 1 1 2 7 6 5 4 3 3 3 2 2 3 3 3 3 4 5 6 7 7 6 7 6 4 4 4 5 6 6 6 6 6 6 7 7 6
4 3 5 3 3 3 1 2 2 2 2 1 1 2 4 6 7 7 6 5 4 3 1 1 2 3 2 2 3 2 3 3 4 3 4 3 3 3 4 6 6 6 6 6 6 7 6 5 3
3 4 2 1 1 2 2 1 1 4 2 4 4 5 6 5 6 6 6 6 5 4 2 2 2 2 3 2 2 2 2 2 3 3 3 3 2 2 3 2 3 4 5 4 4 4 3 2 2
2 0 1 1 0 1 2 1 1 3 4 3 4 7 8 7 7 7 7 6 4 3 3 2 2 2 2 2 1 2 1 1 1 2 2 2 2 2 2 2 2 2 2 2 2 2 3 3 3
1 1 0 0 1 1 1 1 1 3 2 2 4 6 8 7 6 4 4 4 4 4 3 2 2 2 2 2 1 2 1 1 1 1 1 2 2 1 1 1 1 2 2 2 2 2 2 2 2
1 0 1 1 1 0 1 2 1 4 2 3 4 5 6 6 6 4 4 5 5 4 4 3 3 2 2 2 1 1 1 1 1 1 1 2 1 1 1 1 1 1 1 1 1 1 2 2 1
2 2 2 1 1 1 1 3 4 3 3 3 4 4 4 4 4 5 5 5 5 4 3 3 3 2 2 2 2 1 1 1 1 1 1 1 1 1 1 1 1 1 1 1 1 2 2 2 2
2 2 1 2 0 1 2 6 4 2 4 4 4 4 4 4 4 4 3 3 4 3 4 4 3 3 3 2 2 1 1 1 1 0 0 1 1 1 1 1 1 1 1 1 1 1 1 1 2
2 1 3 3 0 1 3 6 4 2 4 5 5 4 4 3 3 3 3 3 3 4 3 4 3 4 3 3 2 1 1 1 1 1 0 0 1 1 1 0 0 0 1 1 1 1 1 1 1
4 3 3 4 2 1 3 7 6 3 4 5 5 4 4 5 5 3 2 2 2 2 2 3 3 3 3 2 2 1 1 0 0 1 1 1 0 0 1 0 0 0 1 1 1 0 1 0 1
4 3 3 4 2 2 6 8 8 5 3 5 5 5 6 6 4 2 2 1 1 1 2 2 3 2 2 2 2 2 2 1 1 1 1 1 1 1 1 0 0 1 1 1 1 0 1 1 1
3 3 3 3 1 2 5 9 7 6 6 6 7 7 6 4 3 2 2 2 2 2 3 3 3 3 3 2 2 2 2 1 2 1 1 1 1 1 1 1 1 1 1 0 1 1 0 0 0
3 4 4 3 3 2 4 7 4 4 3 4 5 5 5 6 6 4 3 3 3 3 3 3 3 3 3 2 2 1 1 0 0 1 1 1 2 2 1 2 2 2 2 2 2 2 2 1 1
4 3 3 1 0 3 1 6 7 4 4 5 5 5 5 5 5 4 4 3 3 4 3 2 3 3 3 3 3 4 3 3 3 2 2 2 2 2 2 2 2 2 2 2 2 2 2 2 2
3 2 2 1 1 2 1 4 10 2 5 6 6 5 5 4 4 3 4 4 3 2 2 2 2 2 3 3 4 4 3 3 2 1 2 2 2 2 2 2 2 2 2 2 2 2 2 2 3
3 4 4 4 3 4 5 5 9 5 6 5 5 5 5 3 3 3 2 2 2 1 1 1 2 2 3 3 4 4 5 3 2 2 2 2 1 1 2 2 2 2 2 3 3 3 3 3 3
3 5 2 2 1 7 3 5 11 6 4 5 5 5 4 3 2 2 2 2 2 2 3 3 3 3 3 3 4 4 5 5 5 4 4 3 2 2 3 2 2 2 3 3 3 3 3 4 4
3 6 6 5 5 5 2 8 9 4 2 2 2 2 1 1 1 2 3 3 3 3 3 3 4 4 3 3 4 4 4 3 3 4 4 4 3 4 3 3 3 3 3 3 3 3 4 3 4
5 3 4 4 1 3 6 7 9 2 1 2 2 2 2 2 2 3 3 3 3 3 3 4 4 4 4 4 3 3 4 4 4 4 3 3 3 3 3 4 3 3 3 3 3 3 4 3 4
3 6 4 4 3 4 6 5 5 3 3 2 2 2 3 3 2 3 3 3 3 3 3 2 3 4 4 4 4 3 4 4 4 3 4 4 4 3 4 4 4 3 3 3 4 3 3 4 3
3 3 3 3 3 4 4 7 5 5 4 4 4 3 3 3 3 3 3 3 3 2 2 2 3 3 3 3 3 3 3 3 3 3 4 4 3 4 4 4 4 4 4 4 4 4 4 4 3
3 5 6 5 4 4 3 9 2 3 2 2 3 3 3 3 3 3 3 3 3 3 2 3 3 3 3 3 3 3 3 3 3 4 4 3 4 4 4 4 4 4 4 4 5 5 5 5 5
Wind_Direction
346 12 67 58 58 55 209 241 208 227 178 136 115 119 133 134 146 164 233 97 106 120 126 129 117 115 110 105 97 91 89 89 88 84 81 79 78 77 75 71 66 62 61 64 69 70 68 67 67
346 33 55 61 91 118 256 240 202 216 174 123 70 77 88 88 77 108 95 85 112 114 114 118 118 120 114 106 99 94 89 86 86 84 80 78 76 74 74 71 68 64 60 62 69 67 67 67 66
38 52 80 79 121 178 209 212 201 215 98 109 87 62 94 104 106 136 122 119 98 94 96 111 110 116 111 105 102 98 92 88 87 85 80 77 75 72 72 69 67 65 62 63 66 69 69 69 67
73 50 58 84 181 211 205 224 173 129 58 63 110 85 58 33 130 144 114 110 97 86 85 105 103 108 105 99 97 97 92 89 88 87 80 76 74 74 71 68 66 64 64 64 66 69 70 71 68
59 79 75 88 222 243 246 241 152 130 115 82 115 116 74 3 54 96 108 109 107 97 92 106 100 104 104 101 97 94 88 85 84 83 80 76 73 71 72 70 68 69 68 66 65 68 71 71 71
62 74 107 193 222 253 262 244 129 110 117 117 125 123 132 56 88 115 112 105 100 102 99 104 104 98 97 97 95 91 86 81 77 77 77 74 72 72 73 72 68 69 69 64 62 66 68 72 73
105 107 160 181 190 232 231 152 143 142 146 182 152 130 158 129 117 122 109 98 88 84 85 76 92 92 88 86 83 84 83 79 74 71 70 67 65 65 65 68 68 68 68 66 62 64 67 66 70
118 107 132 180 184 221 220 127 147 151 174 132 135 149 189 178 143 118 105 95 90 76 75 74 71 73 80 92 79 74 71 71 69 64 60 58 55 56 54 58 65 64 62 61 60 61 60 59 64
91 91 185 201 188 208 170 118 35 76 110 95 103 165 159 137 136 125 116 105 103 87 66 76 83 73 68 81 75 72 67 62 62 60 57 53 44 41 40 47 55 56 58 55 56 57 56 52 53
88 153 210 203 184 171 160 146 157 101 87 103 56 61 109 133 146 150 153 160 163 156 126 98 107 102 86 78 77 69 64 60 55 53 51 49 47 43 44 42 46 47 48 50 48 47 47 47 39
118 176 199 215 180 149 144 147 154 138 205 207 190 164 148 152 159 166 172 176 179 176 166 133 133 130 114 98 90 75 68 61 56 51 50 53 49 43 42 37 31 33 38 41 37 35 34 45 45
118 207 170 243 120 121 158 146 145 192 222 202 174 157 159 169 179 187 183 179 173 171 178 159 143 136 125 118 114 100 85 71 57 45 48 58 54 42 38 42 30 30 30 38 37 38 29 41 44
146 210 44 24 55 126 115 179 204 250 259 127 134 149 170 179 187 197 184 176 174 179 182 180 157 139 131 123 129 103 107 101 77 56 42 58 73 54 41 38 39 36 40 44 35 33 30 31 35
172 130 344 334 337 264 177 258 217 249 176 144 153 175 189 191 188 188 190 187 187 188 187 180 172 153 129 130 143 134 128 111 96 75 41 49 70 74 57 42 38 29 38 52 54 30 26 19 22
93 52 353 310 262 252 111 291 232 230 154 162 179 192 203 211 198 199 199 195 194 190 183 182 179 159 144 149 157 138 134 122 114 104 68 55 62 71 67 55 36 10 28 57 65 47 43 34 22
77 77 281 289 17 247 151 254 256 198 167 199 207 208 212 220 214 216 205 197 193 184 185 188 183 174 173 170 163 152 138 133 130 115 94 72 67 79 86 69 3 352 40 69 72 60 41 30 16
66 193 235 285 298 135 185 249 260 218 189 215 216 216 221 228 238 234 224 210 195 190 189 188 186 183 183 173 162 152 140 140 152 130 115 108 109 100 111 118 336 23 62 53 62 47 39 21 2
203 203 228 248 281 216 238 257 272 262 212 221 223 227 229 228 231 228 228 225 206 189 185 191 190 186 174 160 147 126 110 120 137 161 180 165 130 98 117 123 71 81 85 49 62 83 32 16 334
161 173 229 254 269 247 250 265 270 268 241 232 229 227 228 232 236 213 199 186 178 169 173 187 185 189 171 169 174 176 199 210 227 217 199 181 149 148 150 176 159 141 163 202 174 121 58 357 351
160 185 237 278 299 258 276 274 264 242 234 229 224 223 221 227 228 218 199 175 181 197 201 196 197 193 194 193 185 176 174 200 214 224 210 204 192 186 189 190 203 191 174 170 184 159 151 336 10
211 199 211 242 335 357 327 296 263 255 240 244 233 222 217 212 215 217 209 207 199 207 215 212 208 202 205 189 152 123 100 62 223 238 236 228 212 204 204 207 205 197 188 201 209 193 182 208 264
232 213 185 198 56 294 36 289 278 258 268 246 238 233 229 224 217 216 212 215 216 221 220 216 209 208 211 188 179 181 195 215 225 221 224 232 218 214 214 214 213 206 199 199 214 215 204 187 210
187 103 123 152 170 302 257 243 280 273 254 252 238 230 233 231 217 214 217 218 223 223 218 220 204 210 213 202 197 198 217 225 222 211 215 233 235 225 221 218 214 214 208 204 205 213 213 203 204
122 76 61 54 76 264 224 202 275 238 227 248 243 235 234 240 241 239 238 224 228 216 213 217 211 224 221 211 207 208 219 224 220 227 224 232 243 245 234 217 217 220 217 214 214 213 210 214 212
105 102 42 345 301 250 195 212 253 254 229 225 235 236 231 226 225 241 243 236 233 224 221 217 211 227 228 218 220 221 219 213 215 221 219 221 233 243 239 227 220 222 223 218 213 212 221 215 210
175 149 167 203 226 272 233 234 254 267 263 255 248 236 283 301 281 263 257 252 246 237 227 221 223 232 226 222 230 230 221 216 222 220 215 219 227 233 228 223 220 224 222 221 217 220 227 220 219
148 180 158 133 159 265 259 275 294 273 305 332 338 5 323 302 308 309 306 292 269 251 241 230 230 240 236 232 234 234 225 220 224 224 220 228 232 229 218 216 219 225 222 216 214 227 230 224 223
147 146 119 138 178 253 277 263 256 269 265 292 302 289 291 300 302 300 299 294 291 280 272 259 246 241 242 237 234 237 231 227 227 220 224 229 230 226 219 220 220 223 224 219 216 229 228 222 230
128 141 144 145 176 185 260 268 229 221 215 223 244 260 283 296 299 299 301 298 299 309 304 283 268 262 258 250 245 243 243 235 225 222 228 227 227 221 219 222 221 223 227 222 220 229 225 224 234
172 176 156 170 219 203 222 267 269 217 227 227 258 284 298 297 304 312 319 326 328 320 317 306 288 270 259 250 249 251 251 242 231 231 233 226 226 227 226 226 226 227 230 222 218 226 225 223 227